Tel Aviv, Israel

3:21 PM IDT on October 23, 2017 (GMT +0300)
Ben Gurion

Weather History for LLBG - February, 2013

Change the Weather History Date:

Tuesday, February 5, 2013

  Actual Average Record
Temperature  
Mean Temperature 64 °F -  
Max Temperature 75 °F 63 °F 78 °F (1998)
Min Temperature 53 °F 48 °F 39 °F (2017)
Degree Days  
Heating Degree Days 1    
Growing Degree Days 14 (Base 50)    
Moisture  
Dew Point 44 °F    
Average Humidity 51    
Maximum Humidity 67    
Minimum Humidity 18    
Precipitation  
Precipitation 0.00 in - - ()
Sea Level Pressure  
Sea Level Pressure 29.90 in    
Wind  
Wind Speed 3 mph ()    
Max Wind Speed 7 mph    
Max Gust Speed -    
Visibility 6.2 miles    
Events      
Averages and records for this station are not official NWS values.
T = Trace of Precipitation, MM = Missing Value Source: Averaged Metar Reports

Daily Weather History Graph

Daily Weather History Graph

Search for Another Location

Airport or City:

Trip Planner

Search our weather history database for the weather conditions in past years. The results will help you decide how hot, cold, wet, or windy it might be!

Date:

Astronomy

Feb. 05, 2013 Rise Set
Actual Time 6:31 AM IST 5:18 PM IST
Civil Twilight 6:05 AM IST 5:43 PM IST
Nautical Twilight 5:36 AM IST 6:12 PM IST
Astronomical Twilight 5:08 AM IST 6:41 PM IST
Moon 1:44 AM IST (2/5) 12:22 PM IST (2/5)
Length of Visible Light 11h 37m
Length of Day
10h 46m
Waning Crescent, 30% of the Moon is Illuminated
Feb 5
Waning Crescent
Feb 10
New
Feb 17
First Quarter
Feb 25
Full
Mar 4
Last Quarter

Hourly Weather History & Observations

Time (IST) Temp. Dew Point Humidity Pressure Visibility Wind Dir Wind Speed Gust Speed Precip Events Conditions
12:20 AM 60.8 °F 39.2 °F 45% 29.98 in - Variable 2.3 mph - N/A   Clear
12:50 AM 64.4 °F 35.6 °F 34% 29.98 in - East 5.8 mph - N/A   Clear
1:20 AM - - N/A% 29.98 in - Variable 1.2 mph - N/A   Clear
1:50 AM 64.4 °F 37.4 °F 37% 29.98 in - Variable 2.3 mph - N/A   Clear
2:00 AM 63 °F 38 °F 28% 29.94 in 6 mi ENE 2.3 mph - -  
2:20 AM 62.6 °F 37.4 °F 39% 29.98 in - Variable 1.2 mph - N/A   Clear
2:50 AM 60.8 °F 37.4 °F 42% 29.98 in - Variable 1.2 mph - N/A   Clear
3:20 AM 55.4 °F 41.0 °F 58% 29.95 in 6.2 mi Variable 1.2 mph - N/A   Partly Cloudy
3:50 AM 55.4 °F 41.0 °F 58% 29.95 in 6.2 mi Variable 2.3 mph - N/A   Partly Cloudy
4:20 AM 53.6 °F 42.8 °F 67% 29.95 in 6.2 mi West 4.6 mph - N/A   Partly Cloudy
4:50 AM 53.6 °F 42.8 °F 67% 29.95 in - Variable 2.3 mph - N/A   Clear
5:20 AM 55.4 °F 42.8 °F 63% 29.95 in 6.2 mi Variable 2.3 mph - N/A   Partly Cloudy
5:50 AM 53.6 °F 42.8 °F 67% 29.95 in - Variable 2.3 mph - N/A   Clear
6:20 AM 53.6 °F 42.8 °F 67% 29.95 in 6.2 mi Variable 2.3 mph - N/A   Mostly Cloudy
6:50 AM 55.4 °F 42.8 °F 63% 29.98 in 6.2 mi ENE 5.8 mph - N/A   Mostly Cloudy
7:20 AM 55.4 °F 44.6 °F 67% 29.95 in 6.2 mi ESE 4.6 mph - N/A   Scattered Clouds
7:50 AM 57.2 °F 44.6 °F 63% 29.95 in 6.2 mi Variable 3.5 mph - N/A   Mostly Cloudy
8:00 AM 57 °F 44 °F 52% 29.93 in 6 mi East 3.5 mph - -  
8:20 AM 57.2 °F 44.6 °F 63% 29.95 in 6.2 mi Variable 2.3 mph - N/A   Overcast
8:50 AM 59.0 °F 46.4 °F 63% 29.98 in 6.2 mi Variable 3.5 mph - N/A   Overcast
9:20 AM 60.8 °F 48.2 °F 63% 29.98 in 6.2 mi Variable 2.3 mph - N/A   Overcast
10:20 AM 66.2 °F 48.2 °F 52% 29.95 in 6.2 mi East 4.6 mph - N/A   Overcast
10:50 AM 68.0 °F 50.0 °F 52% 29.95 in 6.2 mi Variable 3.5 mph - N/A   Overcast
11:20 AM 69.8 °F 50.0 °F 49% 29.92 in 6.2 mi Variable 2.3 mph - N/A   Overcast
11:50 AM 71.6 °F 48.2 °F 43% 29.92 in 6.2 mi Calm Calm - N/A   Overcast
12:20 PM 71.6 °F 48.2 °F 43% 29.92 in 6.2 mi Calm Calm - N/A   Overcast
12:50 PM 73.4 °F 48.2 °F 41% 29.89 in 6.2 mi Variable 2.3 mph - N/A   Overcast
1:20 PM 73.4 °F 44.6 °F 36% 29.89 in 6.2 mi East 5.8 mph - N/A   Overcast
2:00 PM 75 °F 40 °F 18% 29.83 in 6 mi East 5.8 mph - -   Overcast
2:20 PM 75.2 °F 41.0 °F 29% 29.86 in 6.2 mi ESE 6.9 mph - N/A   Overcast
3:20 PM 73.4 °F 41.0 °F 31% 29.86 in 6.2 mi ESE 5.8 mph - N/A   Overcast
3:50 PM 73.4 °F 41.0 °F 31% 29.86 in 6.2 mi ESE 5.8 mph - N/A   Overcast
4:20 PM 71.6 °F 46.4 °F 41% 29.83 in 6.2 mi Variable 3.5 mph - N/A   Overcast
4:50 PM 69.8 °F 46.4 °F 43% 29.83 in 6.2 mi ENE 5.8 mph - N/A   Overcast
5:20 PM 69.8 °F 42.8 °F 38% 29.83 in 6.2 mi ENE 5.8 mph - N/A   Overcast
5:50 PM 68.0 °F 42.8 °F 40% 29.83 in 6.2 mi East 4.6 mph - N/A   Overcast
6:20 PM 66.2 °F 46.4 °F 49% 29.83 in 6.2 mi Variable 3.5 mph - N/A   Scattered Clouds
6:50 PM 66.2 °F 44.6 °F 46% 29.86 in 6.2 mi North 4.6 mph - N/A   Scattered Clouds
7:20 PM 66.2 °F 44.6 °F 46% 29.86 in 6.2 mi NE 4.6 mph - N/A   Scattered Clouds
7:50 PM 62.6 °F 48.2 °F 59% 29.83 in 6.2 mi Variable 2.3 mph - N/A   Scattered Clouds
8:00 PM 63 °F 49 °F 49% 29.80 in 6 mi ENE 2.3 mph - -  
8:20 PM 62.6 °F 48.2 °F 59% 29.86 in 6.2 mi Variable 3.5 mph - N/A   Partly Cloudy
8:50 PM 60.8 °F 46.4 °F 59% 29.83 in 6.2 mi Variable 3.5 mph - N/A   Partly Cloudy
9:20 PM 59.0 °F 48.2 °F 67% 29.83 in 6.2 mi Variable 3.5 mph - N/A   Scattered Clouds
9:50 PM 59.0 °F 48.2 °F 67% 29.83 in 6.2 mi Variable 2.3 mph - N/A   Scattered Clouds
10:20 PM 57.2 °F 46.4 °F 67% 29.83 in 6.2 mi Variable 2.3 mph - N/A   Scattered Clouds
10:50 PM 57.2 °F 44.6 °F 63% 29.83 in 6.2 mi ESE 4.6 mph - N/A   Partly Cloudy
11:20 PM 59.0 °F 44.6 °F 59% 29.83 in 6.2 mi Variable 3.5 mph - N/A   Scattered Clouds
11:50 PM 57.2 °F 46.4 °F 67% 29.80 in 6.2 mi Variable 2.3 mph - N/A   Scattered Clouds